www.pogodaiklimat.ru

Погода и климат >> Архив погоды >> Гана >> Sefwi Bekwai


ПОГОДА в Sefwi Bekwai

  • Прогноз погоды в Sefwi Bekwai
  • Монитор погоды в Sefwi Bekwai
  • Климат города

АРХИВ ПОГОДЫ в Sefwi Bekwai

Время (UTC), дата Ветер
(напр.,м/с)
 
Видим.   Явления Облачность Т
(С)
Тd
(С)
f
(%)
Тe
(С)
Тes
(С)
Комфортность P
(гПа)
Po
(гПа)
Тmin
(С)
Tmax
(С)
R
(мм)
R24
(мм)
S
(см)
12 17.04 ЮЗ 2 18 км {туман} 6/6 450 м
[Cu med, cong]
+32.0 +25.7 69 +47 +56 опасность
перегрева
1013.4 1013.0
15 17.04 ЮЗ 1 18 км 5/5 500 м
[Cu med, cong]
+34.5 +26.0 61 +50 +58 опасность
перегрева
1009.7 1010.0
18 17.04 штиль 0 12 км 9/5 360 м
[Cb cap Ac trans Cs]
+33.0 +25.9 66 +48 +48 опасность
перегрева
1009.1 1009.0 +34.5
03 18.04 ЮЗ 3 13 км 6/4 360 м
[Sc Ci sp]
+23.0 +22.0 94 +31 +31 очень
душно
1011.1 1011.0
09 18.04 Ю 1 15 км 6/6 360 м
[Cu Sc]
+28.7 +25.5 83 +42 +47 опасность
перегрева
1014.8 1015.0
12 18.04 ЮЗ 2 18 км 8/8 480 м
[Cu med, cong]
+33.0 +25.7 66 +48 +53 опасность
перегрева
1013.5 1014.0
15 18.04 ЮВ 2 18 км 5/5 480 м
[Cu med, cong Ac trans]
+34.5 +25.5 60 +49 +56 опасность
перегрева
1010.4 1010.0
18 18.04 ЮЗ 1 18 км 9/4 360 м
[Cb cap Ac trans]
+29.5 +24.1 73 +41 +41 опасность
перегрева
1010.7 1011.0 +34.6
15 19.04 З 1 18 км 6/4 500 м
[Cu med, cong Ac trans]
+35.1 +25.8 59 +51 +58 опасность
перегрева
1009.3 1009.0
03 20.04 ЮЗ 1 12 км 6/3 360 м
[Sc Ci sp]
+25.7 +23.7 89 +35 +35 очень
душно
1011.9 1012.0
06 20.04 ЮЗ 1 12 км 4/3 360 м
[Sc Ac trans Ci sp]
+25.0 +23.6 92 +34 +34 очень
душно
1012.6 1013.0 +24.8
09 20.04 ЮЗ 2 16 км 5/5 420 м
[Cu hum]
+29.4 +24.4 75 +42 +47 опасность
перегрева
1012.5 1013.0
12 20.04 Ю 1 18 км 6/6 480 м
[Cu med, cong Ac trans]
+33.5 +25.6 63 +48 +58 опасность
перегрева
1011.0 1011.0
18 20.04 штиль 0 8000 м гроза, ливневой дождь 9/5 330 м
[Cb cap Ac As]
+22.7 +21.9 95 +30 +30 очень
душно
1011.0 1011.0 +35.0 28
21 20.04 З 1 10 км в посл. час гроза {дождь} 9/4 330 м
[Sc Ac trans]
+23.1 +22.0 94 +31 +31 очень
душно
1012.5 1013.0
03 21.04 ЮЗ 1 10 км 8/6 330 м
[Sc Ac trans]
+22.1 +21.0 93 +29 +29 очень
душно
1010.5 1011.0
06 21.04 штиль 0 12 км 6/3 330 м
[Sc Ac trans Ci sp]
+23.0 +20.7 87 +30 +30 очень
душно
1011.8 1012.0 +21.5 29
09 21.04 СЗ 1 14 км 5/3 360 м
[Cu Sc Ci sp]
+25.5 +23.0 86 +34 +42 очень
душно
1013.4 1013.0
12 21.04 ЮВ 2 14 км 6/6 480 м
[Cu med, cong]
+30.8 +23.9 67 +42 +52 опасность
перегрева
1011.7 1012.0
18 21.04 ЮВ 1 16 км ясно +31.0 +24.3 68 +43 +43 опасность
перегрева
1009.7 1010.0 +32.8
21 21.04 штиль 0 12 км 3/0
[Ac trans]
+27.6 +24.1 81 +38 +38 очень
душно
1010.9 1011.0
00 22.04 штиль 0 12 км ясно +26.6 +24.4 88 +37 +37 очень
душно
1012.4 1012.0
03 22.04 штиль 0 12 км ясно +25.4 +23.5 89 +34 +34 очень
душно
1009.9 1010.0
06 22.04 штиль 0 12 км 5/3 360 м
[Sc Ci sp]
+24.5 +23.4 94 +33 +33 очень
душно
1011.2 1011.0 +24.1
09 22.04 ЮВ 2 15 км 6/6 360 м
[Cu Sc]
+28.8 +24.6 78 +41 +45 опасность
перегрева
1013.2 1013.0
12 22.04 В 2 15 км 8/8 480 м
[Cu med, cong]
+32.0 +24.4 64 +44 +49 опасность
перегрева
1012.1 1012.0
15 22.04 ЮВ 2 15 км 5/5 500 м
[Cu med, cong Ac trans]
+34.3 +24.4 56 +47 +53 опасность
перегрева
1008.6 1009.0
18 22.04 ЮЗ 1 15 км 5/5 420 м
[Cb cap Ac trans]
+31.9 +25.4 69 +46 +47 опасность
перегрева
1009.1 1009.0 +34.3
00 23.04 ЮЗ 1 13 км {гроза, дождь} 9/6 330 м
[Sc Ac trans]
+23.5 +22.5 94 +31 +31 очень
душно
1011.9 1012.0 49
03 23.04 штиль 0 10 км 4/4 330 м
[Sc]
+23.5 +23.5 100 +32 +32 очень
душно
1010.6 1011.0
06 23.04 штиль 0 10 км 5/1 330 м
[Sc Ci sp]
+23.0 +22.3 96 +31 +31 очень
душно
1012.1 1012.0 +22.8
09 23.04 ЮЗ 1 16 км 5/5 360 м
[Cu Sc]
+27.0 +25.0 89 +39 +45 очень
душно
1013.7 1014.0
12 23.04 ЮЗ 1 18 км 5/5 450 м
[Cu med, cong]
+32.3 +25.3 67 +47 +59 опасность
перегрева
1011.4 1011.0
15 23.04 Ю 1 20 км 6/5 480 м
[Cu med, cong Ac trans]
+32.7 +25.1 64 +46 +53 опасность
перегрева
1008.2 1008.0
18 23.04 ЮВ 1 18 км 6/4 360 м
[Cb cap Ac trans Ci sp]
+31.2 +25.1 70 +45 +45 опасность
перегрева
1009.4 1009.0 +33.9
21 23.04 штиль 0 10 км 8/8 360 м
[Sc]
+28.2 +24.4 80 +40 +40 очень
душно
1012.0 1012.0
00 24.04 штиль 0 12 км 8/3 360 м
[Sc Ac trans]
+27.0 +24.8 88 +39 +39 очень
душно
1013.1 1013.0
06 24.04 З 1 13 км 8/8 330 м
[Sc]
+25.7 +24.5 93 +36 +36 очень
душно
1012.6 1013.0 +25.4

 

Местоположение метеостанции Sefwi Bekwai (Гана): широта 6.20 долгота -2.33 высота над уровнем моря 172 м.

В архиве по умолчанию представлена погода в Sefwi Bekwai за последнюю неделю. Архивные данные за месяц целиком и за предыдущие месяцы, начиная с января 2011 года, Вы можете получить, выбрав интересующий диапазон дат из раскрывающегося списка и нажав кнопку "Ввод!".


*Определитесь, кто Вы:
робот инопланетянин человек

Внимание! Время в таблицах - всемирное. Для получения местного времени необходимо прибавить поправку, которая в Sefwi Bekwai равна 1 ч.

Смотрите также архив погоды в соседних городах и на ближайших метеорологических станциях:

Погода в Kumasi (Гана) (99 км)
Погода в Sunyani (Гана) (126 км)
Погода в Adiake (Кот-д'Ивуар) (147 км)
Погода в Axim (Гана) (148 км)
Погода в Akim Oda (Гана) (152 км)
Погода в Takoradi (Гана) (159 км)
Погода в Wenchi (Гана) (174 км)
Погода в Saltpond (Гана) (178 км)
Погода в Abetifi (Гана) (182 км)
Погода в Abidjan (Кот-д'Ивуар) (206 км)

Пояснения к столбцам:

Ветер - указаны скорость ветра в м/с - средняя за 10 мин, порывы в срок и между сроками (в фигурных скобках) и направление, откуда дует ветер: С - северный, СВ - северо-восточный, В - восточный, ЮВ - юго-восточный, Ю - южный, ЮЗ - юго-западный, З - западный, СЗ - северо-западный.
Видимость - горизонтальная дальность видимости в метрах или километрах. При видимости от 1 до 10 км при отсутствии осадков обычно наблюдается дымка, при ухудшении видимости до 1 км и менее - туман. В сухую погоду видимость может ухудшаться дымом, пылью или мглою.
Явления - указаны атмосферные явления, наблюдавшиеся в срок или в последний час перед сроком; фигурными скобками обозначены явления, наблюдавшиеся между сроками (за 1-3 часа до срока); квадратными скобками обозначены град или гололедные отложения с указанием их диаметра в мм.
Облачность - указаны через наклонную черту общая и нижняя облачность в баллах и высота нижней границы облаков в метрах; квадратными скобками обозначены формы облаков: Ci - перистые, Cs - перисто-слоистые, Cc - перисто-кучевые, Ac - высококучевые, As - высокослоистые, Sc - слоисто-кучевые, Ns - слоисто-дождевые, Cu - кучевые, Cb - кучево-дождевые. Подробнее классификацию облаков см. в Атласе облаков (PDF).
T - Температура воздуха - температура, измеренная на высоте 2 м над землей.
Td - Температура точки росы - температура, при понижении до которой содержащийся в воздухе водяной пар достигнет насыщения.
f - Относительная влажность воздуха - влажноcть воздуха, измеренная на высоте 2 м над землей.
Te - Эффективная температура - температура, которую ощущает одетый по сезону человек в тени. Характеристика душности погоды. При расчете учитывается влияние влажности воздуха и скорости ветра на теплоощущения человека.
Tes - Эффективная температура на солнце - температура, которую ощущает человек, с поправкой на солнечный нагрев. Характеристика знойности погоды. Зависит от высоты солнца над горизонтом, облачности и скорости ветра. Ночью, в пасмурную погоду, а также при ветре 12 м/с и более поправка равна нулю.
P - Атмосферное давление - приведенное к уровню моря атмосферное давление.
Po - Атмосферное давление - измеренное на уровне метеостанции атмосферное давление.
Tmin - Минимальная температура - минимум температуры воздуха на высоте 2 м над землей.
Tmax - Максимальная температура - максимум температуры воздуха на высоте 2 м над землей.
R - Количество осадков - Количество выпавших осадков за период времени, мм. При наведении курсора мыши на число - период времени, за который выпало указанное количество осадков.
R24 - Количество осадков - Количество выпавших осадков за 24 часа, мм.
S - Снежный покров - Высота снежного покрова, см. При наведении курсора мыши на число - состояние снежного покрова и степень покрытия местности в баллах.